Content
SEND FEEDBACK

Daily
Averages
Monthly
Summary
United States of America

CHAMPAIGN, ILLINOIS


Home > North America > United States > Illinois
Elevation: 736 feet     Latitude: 40 05N     Longitude: 088 13W

WEATHER
 
SELECT A DAY
Number of Records: 198,545;   Date Range: 1/1/95 - 10/21/14
 
SHARE

PRINT THIS DATA

[ ← Previous Day ]
WEATHER ALMANAC - FEBRUARY 22, 2013
[ Next Day → ]
[ °C ]   °F
Weather ElementAverageHighLow
Temperature31.9 °F35.1 °F (12:53 pm)27 °F (9:53 pm)
Dewpoint29 °F32 °F (5:53 am)21.9 °F (7:53 pm)
Humidity89.3 %100 % (2:00 am)75 % (7:53 pm)
Barometer29.90 in30.03 in (9:53 pm)29.80 in (3:22 am)
Wind Speed13.4 mph19.6 mph (12:10 am)
Wind Gust28.8 mph (12:10 am)
Weather ElementAverage
Visibility6.5 mi
Wind DirectionSSW (201.4 °)

Weather ElementTotal
Precipitation0.06 in
Heating Degree Days34 (Base 65)
Averaged from 44 records on February 22, 2013
WEATHER CONDITIONS BREAKOUT
WIND DIRECTION BREAKOUT
WEATHER BY HOUR - FEBRUARY 22, 2013
[ °C ]   °F
Local TimeTemperatureDewpointHumidityBarometerVisibilityWind DirectionWind SpeedGust SpeedPrecipitationEventsConditions
12:10 AM30.2 °F28.4 °F93 %29.84 in3.0 miEast (100°)19.6 mph28.8 mph0.00 inRainLight Freezing Rain
12:53 AM30.9 °F30.0 °F96 %29.87 in2.0 miESE (110°)15.0 mph0.00 inRainLight Freezing Rain
2:00 AM30.2 °F30.2 °F100 %29.84 in2.5 miESE (110°)11.5 mph0.00 inOvercast
2:22 AM32.0 °F30.2 °F93 %29.84 in3.0 miESE (120°)11.5 mph0.01 inOvercast
2:34 AM32.0 °F30.2 °F93 %29.84 in2.5 miESE (120°)11.5 mph0.01 inRainLight Freezing Rain
2:53 AM32.0 °F30.9 °F96 %29.86 in2.5 miESE (120°)9.2 mph0.01 inRainLight Freezing Rain
3:22 AM32.0 °F30.2 °F93 %29.80 in4.0 miESE (120°)9.2 mph0.01 inRainLight Freezing Rain
3:34 AM32.0 °F30.2 °F93 %29.81 in2.5 miESE (120°)8.1 mph0.01 inSnowLight Snow
3:53 AM32.0 °F30.9 °F96 %29.83 in2.5 miESE (120°)8.1 mph0.01 inSnowLight Snow
4:03 AM32.0 °F30.2 °F93 %29.80 in4.0 miESE (120°)8.1 mph0.00 inOvercast
4:53 AM32.0 °F30.9 °F96 %29.83 in5.0 miSE (130°)8.1 mph0.00 inOvercast
5:53 AM32.0 °F32.0 °F100 %29.83 in4.0 miSSE (160°)8.1 mphOvercast
6:20 AM32.0 °F32.0 °F100 %29.81 in1.0 miSouth (170°)8.1 mphOvercast
6:53 AM33.1 °F32.0 °F96 %29.84 in1.0 miSouth (180°)9.2 mphOvercast
7:05 AM33.8 °F32.0 °F93 %29.82 in0.8 miSouth (180°)10.4 mphOvercast
7:53 AM33.1 °F32.0 °F96 %29.86 in0.5 miSSW (200°)12.7 mphFogFog
8:53 AM33.1 °F32.0 °F96 %29.87 in0.5 miSSW (210°)15.0 mphOvercast
9:48 AM33.8 °F32.0 °F93 %29.86 in2.5 miSW (220°)15.0 mphOvercast
9:53 AM33.1 °F32.0 °F96 %29.88 in2.5 miSW (220°)15.0 mphOvercast
10:40 AM33.8 °F32.0 °F93 %29.88 in7.0 miSW (220°)15.0 mphOvercast
10:53 AM34.0 °F32.0 °F92 %29.90 in7.0 miSW (220°)16.1 mphOvercast
11:21 AM33.8 °F32.0 °F93 %29.88 in8.0 miSSW (210°)13.8 mphOvercast
11:28 AM33.8 °F32.0 °F93 %29.88 in9.0 miSW (220°)15.0 mphOvercast
11:53 AM34.0 °F30.9 °F89 %29.91 in10.0 miSW (220°)16.1 mphOvercast
12:00 PM33.8 °F30.2 °F87 %29.89 in10.0 miSW (220°)13.8 mphOvercast
12:53 PM35.1 °F30.9 °F85 %29.91 in10.0 miSW (230°)17.3 mphOvercast
1:42 PM33.8 °F30.2 °F87 %29.89 in10.0 miSW (230°)15.0 mphOvercast
1:53 PM34.0 °F30.9 °F89 %29.91 in10.0 miSW (220°)13.8 mphOvercast
2:16 PM33.8 °F30.2 °F87 %29.89 in10.0 miSW (230°)16.1 mphOvercast
2:53 PM34.0 °F30.0 °F85 %29.92 in10.0 miSW (230°)16.1 mphOvercast
3:19 PM33.8 °F30.2 °F87 %29.91 in10.0 miWSW (240°)11.5 mphOvercast
3:53 PM33.1 °F30.0 °F89 %29.94 in10.0 miWSW (250°)12.7 mphOvercast
4:20 PM33.8 °F28.4 °F81 %29.92 in10.0 miWest (260°)12.7 mphOvercast
4:53 PM32.0 °F27.0 °F82 %29.95 in10.0 miWest (260°)19.6 mphOvercast
5:53 PM30.9 °F25.0 °F79 %29.97 in10.0 miWest (270°)19.6 mphOvercast
6:22 PM30.2 °F24.8 °F80 %29.96 in10.0 miWest (260°)18.4 mphOvercast
6:53 PM30.0 °F24.1 °F79 %30.00 in10.0 miWest (260°)18.4 mphOvercast
7:25 PM28.4 °F23.0 °F80 %29.98 in10.0 miWest (260°)16.1 mphOvercast
7:53 PM28.9 °F21.9 °F75 %30.01 in10.0 miWest (270°)18.4 mphOvercast
8:49 PM28.4 °F23.0 °F80 %29.99 in10.0 miWest (260°)12.7 mphOvercast
8:53 PM28.0 °F23.0 °F81 %30.01 in10.0 miWest (260°)11.5 mphOvercast
9:53 PM27.0 °F21.9 °F81 %30.03 in10.0 miWSW (240°)13.8 mphOvercast
10:53 PM27.0 °F21.9 °F81 %30.03 in10.0 miWSW (250°)10.4 mphOvercast
11:53 PM27.0 °F21.9 °F81 %30.03 in10.0 miWSW (240°)11.5 mphOvercast
Hourly data recorded from KCMI, located miles away from Champaign, Illinois







STORIES FROM OUR PARTNERS